| time (UTC) | temp F | wind direction | speed knots | gust knots | rain 1hr in | rain 24hr in | rain mn in | humidity % | barometer mb |
| 20260510202839 | 69 | 42 | 4.3 | 6.1 | 0.00 | 0.00 | 0.00 | 46 | 1019.3 |
| 20260510202335 | 69 | 26 | 7.0 | 7.8 | 0.00 | 0.00 | 0.00 | 46 | 1019.1 |
| 20260510201832 | 69 | 21 | 7.0 | 7.8 | 0.00 | 0.00 | 0.00 | 46 | 1019.4 |
| 20260510201329 | 70 | 12 | 8.7 | 8.7 | 0.00 | 0.00 | 0.00 | 46 | 1019.5 |
| 20260510200826 | 69 | 27 | 7.8 | 9.6 | 0.00 | 0.00 | 0.00 | 46 | 1019.4 |
| 20260510200324 | 69 | 334 | 8.7 | 11.3 | 0.00 | 0.00 | 0.00 | 45 | 1019.6 |
| 20260510195819 | 70 | 14 | 6.1 | 8.7 | 0.00 | 0.00 | 0.00 | 46 | 1019.6 |
| 20260510195316 | 70 | 0 | 5.2 | 7.0 | 0.00 | 0.00 | 0.00 | 44 | 1019.6 |
| 20260510194816 | 70 | 0 | 7.0 | 7.8 | 0.00 | 0.00 | 0.00 | 45 | 1019.4 |
| 20260510194313 | 69 | 342 | 11.3 | 13.0 | 0.00 | 0.00 | 0.00 | 44 | 1019.6 |
| 20260510193809 | 69 | 17 | 9.6 | 11.3 | 0.00 | 0.00 | 0.00 | 45 | 1019.5 |
| 20260510193304 | 69 | 55 | 7.0 | 7.8 | 0.00 | 0.00 | 0.00 | 45 | 1019.5 |
| 20260510192800 | 69 | 349 | 7.8 | 8.7 | 0.00 | 0.00 | 0.00 | 43 | 1019.2 |
| 20260510192255 | 69 | 344 | 10.4 | 13.0 | 0.00 | 0.00 | 0.00 | 43 | 1019.1 |
| 20260510191751 | 69 | 35 | 9.6 | 12.2 | 0.00 | 0.00 | 0.00 | 44 | 1019.3 |
| 20260510191247 | 69 | 349 | 5.2 | 6.1 | 0.00 | 0.00 | 0.00 | 46 | 1019.3 |
| 20260510190746 | 69 | 34 | 5.2 | 6.1 | 0.00 | 0.00 | 0.00 | 46 | 1019.2 |
| 20260510190242 | 70 | 22 | 7.8 | 8.7 | 0.00 | 0.00 | 0.00 | 45 | 1019.3 |
| 20260510185739 | 70 | 0 | 7.0 | 7.8 | 0.00 | 0.00 | 0.00 | 45 | 1019.3 |
| 20260510185237 | 70 | 27 | 5.2 | 7.0 | 0.00 | 0.00 | 0.00 | 45 | 1019.3 |
| 20260510184733 | 69 | 39 | 6.1 | 7.0 | 0.00 | 0.00 | 0.00 | 46 | 1019.5 |
| 20260510184230 | 70 | 33 | 5.2 | 6.1 | 0.00 | 0.00 | 0.00 | 46 | 1019.5 |
| 20260510183725 | 69 | 48 | 5.2 | 6.1 | 0.00 | 0.00 | 0.00 | 46 | 1019.4 |
| 20260510183220 | 70 | 76 | 4.3 | 6.1 | 0.00 | 0.00 | 0.00 | 46 | 1019.5 |
| 20260510182717 | 70 | 11 | 7.0 | 7.8 | 0.00 | 0.00 | 0.00 | 45 | 1019.6 |
| 20260510182213 | 70 | 42 | 11.3 | 13.0 | 0.00 | 0.00 | 0.00 | 45 | 1019.4 |
| 20260510181710 | 69 | 18 | 7.0 | 8.7 | 0.00 | 0.00 | 0.00 | 46 | 1019.4 |
| 20260510181207 | 69 | 37 | 11.3 | 13.0 | 0.00 | 0.00 | 0.00 | 46 | 1019.5 |
| 20260510180702 | 69 | 23 | 10.4 | 12.2 | 0.00 | 0.00 | 0.00 | 45 | 1019.4 |
| 20260510180200 | 69 | 51 | 7.0 | 8.7 | 0.00 | 0.00 | 0.00 | 44 | 1019.4 |
| 20260510175656 | 69 | 10 | 7.8 | 9.6 | 0.00 | 0.00 | 0.00 | 44 | 1019.3 |
| 20260510175152 | 69 | 39 | 7.8 | 8.7 | 0.00 | 0.00 | 0.00 | 44 | 1019.6 |
| 20260510174649 | 69 | 32 | 9.6 | 11.3 | 0.00 | 0.00 | 0.00 | 44 | 1019.3 |
| 20260510174147 | 69 | 10 | 9.6 | 11.3 | 0.00 | 0.00 | 0.00 | 45 | 1019.6 |
| 20260510173643 | 68 | 18 | 7.0 | 7.8 | 0.00 | 0.00 | 0.00 | 44 | 1019.4 |
| 20260510173139 | 68 | 19 | 8.7 | 12.2 | 0.00 | 0.00 | 0.00 | 45 | 1019.6 |
| 20260510172634 | 68 | 10 | 9.6 | 12.2 | 0.00 | 0.00 | 0.00 | 46 | 1019.3 |
| 20260510172131 | 69 | 38 | 10.4 | 13.9 | 0.00 | 0.00 | 0.00 | 46 | 1019.2 |
| 20260510171628 | 68 | 14 | 5.2 | 7.0 | 0.00 | 0.00 | 0.00 | 48 | 1019.2 |
| 20260510171126 | 68 | 14 | 11.3 | 13.9 | 0.00 | 0.00 | 0.00 | 47 | 1019.3 |
| 20260510170621 | 68 | 359 | 7.8 | 8.7 | 0.00 | 0.00 | 0.00 | 48 | 1019.2 |
| 20260510170118 | 68 | 44 | 8.7 | 9.6 | 0.00 | 0.00 | 0.00 | 49 | 1018.9 |
| 20260510165614 | 68 | 27 | 7.8 | 8.7 | 0.00 | 0.00 | 0.00 | 49 | 1018.8 |
| 20260510165109 | 69 | 30 | 12.2 | 18.2 | 0.00 | 0.00 | 0.00 | 48 | 1018.8 |
| 20260510164608 | 69 | 28 | 7.8 | 8.7 | 0.00 | 0.00 | 0.00 | 49 | 1018.8 |
| 20260510164104 | 68 | 30 | 9.6 | 11.3 | 0.00 | 0.00 | 0.00 | 50 | 1019.0 |
| 20260510163559 | 68 | 15 | 8.7 | 9.6 | 0.00 | 0.00 | 0.00 | 49 | 1018.7 |
| 20260510163056 | 68 | 4 | 8.7 | 8.7 | 0.00 | 0.00 | 0.00 | 49 | 1018.7 |
| 20260510162551 | 68 | 25 | 9.6 | 12.2 | 0.00 | 0.00 | 0.00 | 52 | 1018.9 |
| 20260510162047 | 67 | 8 | 8.7 | 9.6 | 0.00 | 0.00 | 0.00 | 53 | 1018.7 |
| 20260510161543 | 67 | 38 | 4.3 | 7.0 | 0.00 | 0.00 | 0.00 | 52 | 1018.8 |
| 20260510161040 | 66 | 36 | 9.6 | 11.3 | 0.00 | 0.00 | 0.00 | 53 | 1018.7 |
| 20260510160538 | 66 | 39 | 8.7 | 11.3 | 0.00 | 0.00 | 0.00 | 54 | 1019.0 |
| 20260510160037 | 66 | 34 | 8.7 | 13.9 | 0.00 | 0.00 | 0.00 | 55 | 1018.6 |
| 20260510155534 | 65 | 54 | 7.8 | 9.6 | 0.00 | 0.00 | 0.00 | 57 | 1018.7 |
| 20260510155030 | 65 | 53 | 6.1 | 8.7 | 0.00 | 0.00 | 0.00 | 58 | 1018.5 |
| 20260510154526 | 65 | 24 | 5.2 | 7.0 | 0.00 | 0.00 | 0.00 | 60 | 1018.4 |
| 20260510154021 | 64 | 19 | 5.2 | 7.8 | 0.00 | 0.00 | 0.00 | 61 | 1018.4 |
| 20260510153516 | 64 | 21 | 9.6 | 9.6 | 0.00 | 0.00 | 0.00 | 61 | 1018.3 |
| 20260510153013 | 64 | 37 | 10.4 | 12.2 | 0.00 | 0.00 | 0.00 | 61 | 1018.1 |
| 20260510152510 | 64 | 47 | 7.8 | 9.6 | 0.00 | 0.00 | 0.00 | 60 | 1018.0 |
| 20260510152000 | 64 | 83 | 7.8 | 9.6 | 0.00 | 0.00 | 0.00 | 63 | 1017.6 |
| 20260510151457 | 64 | 27 | 7.8 | 9.6 | 0.00 | 0.00 | 0.00 | 64 | 1017.6 |
| 20260510150954 | 64 | 49 | 6.1 | 7.8 | 0.00 | 0.00 | 0.00 | 64 | 1017.5 |
| 20260510150449 | 64 | 42 | 8.7 | 11.3 | 0.00 | 0.00 | 0.00 | 66 | 1017.5 |
| 20260510145946 | 64 | 60 | 9.6 | 13.9 | 0.00 | 0.00 | 0.00 | 68 | 1017.4 |
| 20260510145442 | 63 | 66 | 9.6 | 12.2 | 0.00 | 0.00 | 0.00 | 70 | 1017.6 |
| 20260510144938 | 63 | 91 | 7.8 | 11.3 | 0.00 | 0.00 | 0.00 | 71 | 1017.6 |
| 20260510144435 | 63 | 53 | 6.1 | 7.0 | 0.00 | 0.00 | 0.00 | 73 | 1017.6 |
| 20260510143931 | 62 | 15 | 7.8 | 8.7 | 0.00 | 0.00 | 0.00 | 74 | 1017.8 |
| 20260510143426 | 62 | 65 | 7.0 | 7.8 | 0.00 | 0.00 | 0.00 | 75 | 1017.9 |
| 20260510142924 | 62 | 44 | 8.7 | 11.3 | 0.00 | 0.00 | 0.00 | 76 | 1017.6 |
| 20260510142421 | 62 | 37 | 10.4 | 13.9 | 0.00 | 0.00 | 0.00 | 76 | 1017.8 |
| 20260510141917 | 62 | 29 | 5.2 | 6.1 | 0.00 | 0.00 | 0.00 | 76 | 1017.6 |
| 20260510141414 | 62 | 26 | 10.4 | 12.2 | 0.00 | 0.00 | 0.00 | 76 | 1018.0 |
| 20260510140911 | 62 | 36 | 7.8 | 9.6 | 0.00 | 0.00 | 0.00 | 76 | 1018.0 |
| 20260510140408 | 62 | 45 | 5.2 | 7.0 | 0.00 | 0.00 | 0.00 | 76 | 1018.1 |
| 20260510135907 | 62 | 6 | 5.2 | 7.0 | 0.00 | 0.00 | 0.00 | 76 | 1018.0 |
| 20260510135403 | 62 | 36 | 5.2 | 6.1 | 0.00 | 0.00 | 0.00 | 76 | 1017.9 |
| 20260510134900 | 62 | 16 | 6.1 | 7.8 | 0.00 | 0.00 | 0.00 | 76 | 1017.6 |
| 20260510134357 | 62 | 15 | 5.2 | 6.1 | 0.00 | 0.00 | 0.00 | 77 | 1017.6 |
| 20260510133853 | 62 | 35 | 7.8 | 9.6 | 0.00 | 0.00 | 0.00 | 76 | 1017.5 |
| 20260510133349 | 62 | 68 | 2.6 | 5.2 | 0.00 | 0.00 | 0.00 | 77 | 1017.5 |
| 20260510132845 | 62 | 21 | 7.0 | 7.8 | 0.00 | 0.00 | 0.00 | 77 | 1017.3 |
| 20260510132343 | 63 | 16 | 6.1 | 7.8 | 0.00 | 0.00 | 0.00 | 77 | 1017.3 |
| 20260510131840 | 63 | 58 | 9.6 | 12.2 | 0.00 | 0.00 | 0.00 | 76 | 1017.3 |
| 20260510131337 | 63 | 36 | 6.1 | 9.6 | 0.00 | 0.00 | 0.00 | 76 | 1017.0 |
| 20260510130834 | 63 | 32 | 7.8 | 11.3 | 0.00 | 0.00 | 0.00 | 77 | 1016.9 |
| 20260510130331 | 62 | 59 | 7.8 | 11.3 | 0.00 | 0.00 | 0.00 | 77 | 1017.0 |
| 20260510125827 | 62 | 25 | 4.3 | 5.2 | 0.00 | 0.00 | 0.00 | 78 | 1016.8 |
| 20260510125323 | 62 | 7 | 4.3 | 6.1 | 0.00 | 0.00 | 0.00 | 78 | 1016.5 |
| 20260510124820 | 62 | 53 | 5.2 | 6.1 | 0.00 | 0.00 | 0.00 | 78 | 1016.5 |
| 20260510124318 | 62 | 67 | 7.8 | 8.7 | 0.00 | 0.00 | 0.00 | 78 | 1016.4 |
| 20260510123813 | 62 | 34 | 5.2 | 7.0 | 0.00 | 0.00 | 0.00 | 78 | 1016.2 |
| 20260510123309 | 62 | 114 | 5.2 | 6.1 | 0.00 | 0.00 | 0.00 | 78 | 1016.2 |
| 20260510122805 | 62 | 28 | 4.3 | 6.1 | 0.00 | 0.00 | 0.00 | 78 | 1016.1 |
| 20260510122301 | 62 | 69 | 5.2 | 7.0 | 0.00 | 0.00 | 0.00 | 79 | 1016.2 |
| 20260510121758 | 61 | 17 | 7.0 | 12.2 | 0.00 | 0.00 | 0.00 | 80 | 1016.0 |
| 20260510121256 | 61 | 27 | 7.0 | 7.0 | 0.00 | 0.00 | 0.00 | 80 | 1015.8 |
| 20260510120753 | 61 | 17 | 7.8 | 8.7 | 0.00 | 0.00 | 0.00 | 80 | 1015.5 |
| 20260510120249 | 61 | 63 | 5.2 | 7.0 | 0.00 | 0.00 | 0.00 | 80 | 1015.7 |
| 20260510115745 | 61 | 119 | 4.3 | 5.2 | 0.00 | 0.00 | 0.00 | 80 | 1015.5 |
| 20260510115243 | 61 | 58 | 3.5 | 5.2 | 0.00 | 0.00 | 0.00 | 80 | 1015.1 |
| 20260510114738 | 61 | 61 | 7.8 | 11.3 | 0.00 | 0.00 | 0.00 | 79 | 1015.2 |
| 20260510114236 | 61 | 21 | 4.3 | 6.1 | 0.00 | 0.00 | 0.00 | 79 | 1015.3 |
| 20260510113731 | 61 | 66 | 3.5 | 5.2 | 0.00 | 0.00 | 0.00 | 79 | 1015.2 |
| 20260510113228 | 61 | 46 | 5.2 | 7.0 | 0.00 | 0.00 | 0.00 | 79 | 1015.0 |
| 20260510112724 | 61 | 45 | 4.3 | 6.1 | 0.00 | 0.00 | 0.00 | 79 | 1014.7 |
| 20260510112221 | 61 | 44 | 4.3 | 6.1 | 0.00 | 0.00 | 0.00 | 79 | 1014.7 |
| 20260510111717 | 62 | 66 | 4.3 | 5.2 | 0.00 | 0.00 | 0.00 | 79 | 1014.9 |
| 20260510111215 | 62 | 38 | 4.3 | 7.0 | 0.00 | 0.00 | 0.00 | 79 | 1014.7 |
| 20260510110714 | 62 | 27 | 5.2 | 6.1 | 0.00 | 0.00 | 0.00 | 79 | 1014.6 |
| 20260510110212 | 62 | 54 | 2.6 | 2.6 | 0.00 | 0.00 | 0.00 | 79 | 1014.5 |
| 20260510105712 | 62 | 26 | 5.2 | 6.1 | 0.00 | 0.00 | 0.00 | 79 | 1014.3 |
| 20260510105207 | 62 | 40 | 6.1 | 7.8 | 0.00 | 0.00 | 0.00 | 78 | 1014.4 |
| 20260510104704 | 62 | 30 | 4.3 | 5.2 | 0.00 | 0.00 | 0.00 | 78 | 1014.2 |
| 20260510104201 | 62 | 36 | 7.0 | 7.8 | 0.00 | 0.00 | 0.00 | 78 | 1014.2 |
| 20260510103658 | 62 | 39 | 5.2 | 6.1 | 0.00 | 0.00 | 0.00 | 77 | 1014.1 |
| 20260510103155 | 62 | 49 | 5.2 | 5.2 | 0.00 | 0.00 | 0.00 | 78 | 1014.1 |
| 20260510102655 | 62 | 15 | 4.3 | 5.2 | 0.00 | 0.00 | 0.00 | 78 | 1013.9 |
| 20260510102151 | 62 | 21 | 4.3 | 5.2 | 0.00 | 0.00 | 0.00 | 79 | 1013.9 |
| 20260510101648 | 63 | 29 | 3.5 | 3.5 | 0.00 | 0.00 | 0.00 | 77 | 1013.9 |
| 20260510101147 | 62 | 79 | 2.6 | 2.6 | 0.00 | 0.00 | 0.00 | 79 | 1013.8 |
| 20260510100642 | 62 | 68 | 1.7 | 1.7 | 0.00 | 0.00 | 0.00 | 79 | 1014.2 |
| 20260510100140 | 63 | 78 | 1.7 | 1.7 | 0.00 | 0.00 | 0.00 | 77 | 1013.9 |
| 20260510095635 | 62 | 33 | 3.5 | 3.5 | 0.00 | 0.00 | 0.00 | 78 | 1014.1 |
| 20260510095130 | 62 | 85 | 1.7 | 1.7 | 0.00 | 0.00 | 0.00 | 78 | 1013.5 |
| 20260510094624 | 61 | 103 | 1.7 | 1.7 | 0.00 | 0.00 | 0.00 | 79 | 1013.7 |
| 20260510094119 | 62 | 131 | 0.0 | 0.0 | 0.00 | 0.00 | 0.00 | 79 | 1013.7 |
| 20260510093616 | 63 | 131 | 0.9 | 0.9 | 0.00 | 0.00 | 0.00 | 78 | 1013.6 |
| 20260510093113 | 63 | 131 | 0.0 | 0.0 | 0.00 | 0.00 | 0.00 | 76 | 1013.6 |
| 20260510092610 | 63 | 131 | 0.0 | 0.0 | 0.00 | 0.00 | 0.00 | 75 | 1013.4 |
| 20260510092109 | 64 | 131 | 0.0 | 0.0 | 0.00 | 0.00 | 0.00 | 75 | 1013.3 |
| 20260510091606 | 64 | 130 | 0.9 | 0.9 | 0.00 | 0.00 | 0.00 | 72 | 1012.9 |
| 20260510091102 | 64 | 131 | 0.9 | 0.9 | 0.00 | 0.00 | 0.00 | 72 | 1013.1 |
| 20260510090559 | 64 | 132 | 0.9 | 0.9 | 0.00 | 0.00 | 0.00 | 73 | 1012.9 |
| 20260510090055 | 64 | 133 | 0.0 | 0.0 | 0.00 | 0.00 | 0.00 | 73 | 1012.7 |
| 20260510085550 | 64 | 131 | 0.0 | 0.0 | 0.00 | 0.00 | 0.00 | 73 | 1012.7 |
| 20260510085046 | 64 | 127 | 0.9 | 0.9 | 0.00 | 0.00 | 0.00 | 71 | 1012.8 |
| 20260510084543 | 64 | 127 | 1.7 | 1.7 | 0.00 | 0.00 | 0.00 | 71 | 1012.6 |
| 20260510084040 | 65 | 134 | 0.0 | 0.0 | 0.00 | 0.00 | 0.00 | 71 | 1012.7 |
| 20260510083536 | 65 | 85 | 1.7 | 2.6 | 0.00 | 0.00 | 0.00 | 69 | 1012.8 |
| 20260510083033 | 66 | 54 | 1.7 | 1.7 | 0.00 | 0.00 | 0.00 | 69 | 1012.5 |
| 20260510082529 | 66 | 55 | 1.7 | 2.6 | 0.00 | 0.00 | 0.00 | 69 | 1012.4 |
| 20260510082025 | 66 | 121 | 0.9 | 1.7 | 0.00 | 0.00 | 0.00 | 69 | 1012.6 |
| 20260510081520 | 66 | 151 | 0.9 | 0.9 | 0.00 | 0.00 | 0.00 | 69 | 1012.5 |
| 20260510081016 | 65 | 56 | 1.7 | 2.6 | 0.00 | 0.00 | 0.00 | 70 | 1012.5 |
| 20260510080515 | 65 | 82 | 1.7 | 1.7 | 0.00 | 0.00 | 0.00 | 72 | 1012.6 |
| 20260510080012 | 65 | 137 | 0.9 | 0.9 | 0.00 | 0.00 | 0.00 | 72 | 1012.4 |
| 20260510075509 | 65 | 129 | 0.9 | 1.7 | 0.00 | 0.00 | 0.00 | 72 | 1012.5 |
| 20260510075006 | 65 | 134 | 0.0 | 0.9 | 0.00 | 0.00 | 0.00 | 72 | 1012.5 |
| 20260510074504 | 65 | 117 | 1.7 | 1.7 | 0.00 | 0.00 | 0.00 | 72 | 1012.8 |
| 20260510073959 | 65 | 118 | 1.7 | 1.7 | 0.00 | 0.00 | 0.00 | 73 | 1012.8 |
| 20260510073455 | 66 | 152 | 0.0 | 0.9 | 0.00 | 0.00 | 0.00 | 71 | 1012.7 |
| 20260510072952 | 66 | 152 | 0.9 | 0.9 | 0.00 | 0.00 | 0.00 | 70 | 1012.7 |
| 20260510072449 | 66 | 149 | 0.9 | 0.9 | 0.00 | 0.00 | 0.00 | 70 | 1012.6 |
| 20260510071944 | 66 | 17 | 3.5 | 5.2 | 0.00 | 0.00 | 0.00 | 71 | 1012.6 |
| 20260510071441 | 66 | 13 | 4.3 | 5.2 | 0.00 | 0.00 | 0.00 | 71 | 1012.7 |
| 20260510070939 | 66 | 350 | 4.3 | 6.1 | 0.00 | 0.00 | 0.00 | 71 | 1012.5 |
| 20260510070436 | 66 | 0 | 6.1 | 7.0 | 0.00 | 0.00 | 0.00 | 69 | 1012.4 |
| 20260510065932 | 65 | 209 | 0.9 | 0.9 | 0.00 | 0.00 | 0.00 | 74 | 1012.6 |
| 20260510065429 | 66 | 203 | 1.7 | 1.7 | 0.00 | 0.00 | 0.00 | 71 | 1012.4 |
| 20260510064925 | 67 | 267 | 1.7 | 2.6 | 0.00 | 0.00 | 0.00 | 67 | 1012.4 |
| 20260510064423 | 68 | 194 | 0.9 | 0.9 | 0.00 | 0.00 | 0.00 | 64 | 1011.7 |
| 20260510063919 | 68 | 190 | 0.9 | 0.9 | 0.00 | 0.00 | 0.00 | 64 | 1011.5 |
| 20260510063414 | 68 | 180 | 1.7 | 2.6 | 0.00 | 0.00 | 0.00 | 64 | 1011.7 |
| 20260510062912 | 68 | 217 | 3.5 | 5.2 | 0.00 | 0.00 | 0.00 | 65 | 1011.6 |
| 20260510062407 | 68 | 169 | 2.6 | 2.6 | 0.00 | 0.00 | 0.00 | 64 | 1011.5 |
| 20260510061858 | 68 | 186 | 3.5 | 3.5 | 0.00 | 0.00 | 0.00 | 64 | 1011.7 |
| 20260510061354 | 68 | 146 | 4.3 | 6.1 | 0.00 | 0.00 | 0.00 | 64 | 1011.3 |
| 20260510060850 | 68 | 173 | 4.3 | 6.1 | 0.00 | 0.00 | 0.00 | 63 | 1011.5 |
| 20260510060347 | 69 | 174 | 4.3 | 6.1 | 0.00 | 0.00 | 0.00 | 61 | 1011.7 |
| 20260510055843 | 68 | 178 | 2.6 | 3.5 | 0.00 | 0.00 | 0.00 | 63 | 1011.5 |
| 20260510055342 | 68 | 166 | 4.3 | 6.1 | 0.00 | 0.00 | 0.00 | 63 | 1012.1 |
| 20260510054836 | 68 | 198 | 2.6 | 3.5 | 0.00 | 0.00 | 0.00 | 66 | 1012.1 |
| 20260510054332 | 67 | 207 | 1.7 | 2.6 | 0.00 | 0.00 | 0.00 | 70 | 1012.3 |
| 20260510053827 | 66 | 191 | 3.5 | 5.2 | 0.00 | 0.00 | 0.00 | 72 | 1012.4 |
| 20260510053322 | 65 | 180 | 2.6 | 2.6 | 0.00 | 0.00 | 0.00 | 74 | 1012.5 |
| 20260510052819 | 65 | 170 | 1.7 | 2.6 | 0.00 | 0.00 | 0.00 | 79 | 1012.5 |
| 20260510052316 | 63 | 188 | 0.9 | 0.9 | 0.00 | 0.00 | 0.00 | 83 | 1012.8 |
| 20260510051812 | 63 | 208 | 0.9 | 0.9 | 0.00 | 0.00 | 0.00 | 85 | 1012.8 |
| 20260510051309 | 63 | 208 | 0.9 | 0.9 | 0.00 | 0.00 | 0.00 | 87 | 1012.9 |
| 20260510050806 | 63 | 192 | 0.9 | 0.9 | 0.00 | 0.00 | 0.00 | 87 | 1013.0 |
| 20260510050303 | 63 | 189 | 0.9 | 0.9 | 0.00 | 0.00 | 0.00 | 88 | 1012.8 |
| 20260510045800 | 63 | 189 | 0.0 | 0.0 | 0.00 | 0.00 | 0.00 | 87 | 1012.6 |
| 20260510045256 | 63 | 189 | 0.0 | 0.0 | 0.00 | 0.00 | 0.00 | 86 | 1012.7 |
| 20260510044754 | 63 | 189 | 0.0 | 0.0 | 0.00 | 0.00 | 0.00 | 85 | 1012.5 |
| 20260510044250 | 63 | 189 | 0.0 | 0.0 | 0.00 | 0.00 | 0.00 | 84 | 1012.5 |
| 20260510043746 | 63 | 189 | 0.0 | 0.0 | 0.00 | 0.00 | 0.00 | 84 | 1012.4 |
| 20260510043242 | 63 | 189 | 0.0 | 0.0 | 0.00 | 0.00 | 0.00 | 83 | 1012.1 |
| 20260510042740 | 63 | 189 | 0.0 | 0.0 | 0.00 | 0.00 | 0.00 | 82 | 1012.2 |
| 20260510042235 | 64 | 189 | 0.0 | 0.0 | 0.00 | 0.00 | 0.00 | 81 | 1012.4 |
| 20260510041732 | 63 | 189 | 0.9 | 1.7 | 0.00 | 0.00 | 0.00 | 80 | 1012.2 |
| 20260510041230 | 62 | 190 | 0.0 | 0.9 | 0.00 | 0.00 | 0.00 | 82 | 1012.2 |
| 20260510040726 | 62 | 190 | 0.0 | 0.0 | 0.00 | 0.00 | 0.00 | 84 | 1012.5 |
| 20260510040223 | 62 | 190 | 0.0 | 0.0 | 0.00 | 0.00 | 0.00 | 83 | 1012.2 |
| 20260510035719 | 62 | 190 | 0.0 | 0.0 | 0.00 | 0.01 | 0.01 | 84 | 1012.4 |
| 20260510035215 | 62 | 190 | 0.0 | 0.0 | 0.00 | 0.01 | 0.01 | 83 | 1012.3 |
| 20260510034711 | 63 | 190 | 0.0 | 0.0 | 0.00 | 0.01 | 0.01 | 83 | 1012.1 |
| 20260510034208 | 62 | 190 | 0.0 | 0.0 | 0.00 | 0.01 | 0.01 | 84 | 1011.9 |
| 20260510033659 | 63 | 190 | 0.0 | 0.0 | 0.00 | 0.01 | 0.01 | 82 | 1011.9 |
| 20260510033158 | 63 | 190 | 0.0 | 0.0 | 0.00 | 0.01 | 0.01 | 81 | 1011.8 |
| 20260510032653 | 62 | 190 | 0.0 | 0.0 | 0.00 | 0.01 | 0.01 | 83 | 1012.1 |
| 20260510032148 | 62 | 190 | 0.0 | 0.0 | 0.00 | 0.01 | 0.01 | 82 | 1011.9 |
| 20260510031643 | 62 | 190 | 0.0 | 0.0 | 0.00 | 0.01 | 0.01 | 81 | 1011.6 |
| 20260510031140 | 62 | 190 | 0.0 | 0.0 | 0.00 | 0.01 | 0.01 | 81 | 1011.5 |
| 20260510030635 | 62 | 190 | 0.0 | 0.0 | 0.00 | 0.01 | 0.01 | 82 | 1011.5 |
| 20260510030133 | 63 | 190 | 0.0 | 0.0 | 0.00 | 0.01 | 0.01 | 80 | 1011.5 |
| 20260510025630 | 64 | 190 | 0.0 | 0.0 | 0.00 | 0.01 | 0.01 | 78 | 1011.3 |
| 20260510025127 | 65 | 190 | 0.0 | 0.0 | 0.00 | 0.01 | 0.01 | 75 | 1011.0 |
| 20260510024624 | 65 | 190 | 0.0 | 0.0 | 0.00 | 0.01 | 0.01 | 73 | 1011.0 |
| 20260510024120 | 65 | 190 | 0.0 | 0.0 | 0.00 | 0.01 | 0.01 | 73 | 1011.1 |
| 20260510023616 | 65 | 190 | 0.0 | 0.0 | 0.00 | 0.01 | 0.01 | 72 | 1011.3 |
| 20260510023114 | 66 | 190 | 0.0 | 0.0 | 0.00 | 0.01 | 0.01 | 71 | 1011.0 |
| 20260510022613 | 66 | 190 | 0.0 | 0.0 | 0.00 | 0.01 | 0.01 | 72 | 1011.1 |
| 20260510022108 | 64 | 190 | 0.0 | 0.0 | 0.00 | 0.01 | 0.01 | 73 | 1010.8 |
| 20260510021605 | 65 | 190 | 0.0 | 0.0 | 0.00 | 0.01 | 0.01 | 71 | 1010.7 |
| 20260510021102 | 66 | 190 | 0.0 | 0.0 | 0.00 | 0.01 | 0.01 | 69 | 1010.4 |
| 20260510020555 | 67 | 190 | 0.0 | 0.0 | 0.00 | 0.01 | 0.01 | 66 | 1010.2 |
| 20260510020051 | 66 | 190 | 0.0 | 0.0 | 0.00 | 0.01 | 0.01 | 66 | 1010.1 |
| 20260510015548 | 66 | 190 | 0.0 | 0.0 | 0.00 | 0.01 | 0.01 | 67 | 1010.1 |
| 20260510015044 | 67 | 190 | 0.0 | 0.0 | 0.00 | 0.01 | 0.01 | 66 | 1009.9 |
| 20260510014540 | 68 | 190 | 0.0 | 0.0 | 0.00 | 0.01 | 0.01 | 64 | 1009.8 |
| 20260510014037 | 69 | 190 | 0.0 | 0.0 | 0.00 | 0.01 | 0.01 | 62 | 1009.8 |
| 20260510013531 | 70 | 190 | 0.0 | 0.0 | 0.00 | 0.01 | 0.01 | 61 | 1009.6 |
| 20260510013028 | 70 | 190 | 0.0 | 0.0 | 0.00 | 0.01 | 0.01 | 59 | 1009.6 |
| 20260510012522 | 72 | 190 | 0.0 | 0.0 | 0.00 | 0.01 | 0.01 | 55 | 1009.5 |
| 20260510012019 | 71 | 190 | 0.0 | 0.0 | 0.00 | 0.01 | 0.01 | 58 | 1009.5 |
| 20260510011518 | 72 | 190 | 0.0 | 0.0 | 0.00 | 0.01 | 0.01 | 57 | 1009.4 |
| 20260510011013 | 73 | 190 | 0.0 | 0.0 | 0.00 | 0.01 | 0.01 | 55 | 1009.2 |
| 20260510010511 | 74 | 190 | 0.0 | 0.0 | 0.00 | 0.01 | 0.01 | 53 | 1009.1 |
| 20260510010008 | 75 | 190 | 0.0 | 0.0 | 0.00 | 0.01 | 0.01 | 51 | 1009.0 |
| 20260510005503 | 76 | 190 | 0.0 | 0.9 | 0.00 | 0.01 | 0.01 | 49 | 1009.0 |
| 20260510005002 | 77 | 192 | 0.0 | 0.9 | 0.00 | 0.01 | 0.01 | 46 | 1009.1 |
| 20260510004458 | 78 | 193 | 0.9 | 0.9 | 0.00 | 0.01 | 0.01 | 46 | 1008.9 |
| 20260510003957 | 78 | 186 | 0.9 | 0.9 | 0.00 | 0.01 | 0.01 | 45 | 1008.9 |
| 20260510003453 | 78 | 195 | 0.9 | 1.7 | 0.00 | 0.01 | 0.01 | 45 | 1009.0 |
| 20260510002948 | 78 | 200 | 1.7 | 1.7 | 0.00 | 0.01 | 0.01 | 44 | 1009.0 |
| 20260510002444 | 79 | 197 | 1.7 | 1.7 | 0.00 | 0.01 | 0.01 | 44 | 1009.0 |
| 20260510001941 | 79 | 202 | 2.6 | 2.6 | 0.00 | 0.01 | 0.01 | 43 | 1009.1 |
| 20260510001438 | 79 | 219 | 2.6 | 2.6 | 0.00 | 0.01 | 0.01 | 44 | 1009.0 |
| 20260510000936 | 79 | 189 | 2.6 | 2.6 | 0.00 | 0.01 | 0.01 | 42 | 1008.9 |
| 20260510000433 | 80 | 178 | 0.9 | 0.9 | 0.00 | 0.01 | 0.01 | 43 | 1009.0 |
| 20260509235929 | 80 | 194 | 4.3 | 5.2 | 0.00 | 0.01 | 0.01 | 42 | 1009.1 |
| 20260509235426 | 80 | 215 | 3.5 | 3.5 | 0.00 | 0.01 | 0.01 | 41 | 1009.0 |
| 20260509234922 | 81 | 211 | 3.5 | 3.5 | 0.00 | 0.01 | 0.01 | 42 | 1009.2 |
| 20260509234419 | 81 | 163 | 6.1 | 7.8 | 0.00 | 0.01 | 0.01 | 41 | 1009.2 |
| 20260509233917 | 81 | 154 | 2.6 | 3.5 | 0.00 | 0.01 | 0.01 | 38 | 1009.1 |
| 20260509233414 | 81 | 196 | 4.3 | 5.2 | 0.00 | 0.01 | 0.01 | 37 | 1009.1 |
| 20260509232910 | 81 | 160 | 3.5 | 5.2 | 0.00 | 0.01 | 0.01 | 35 | 1009.0 |
| 20260509232403 | 81 | 208 | 2.6 | 3.5 | 0.00 | 0.01 | 0.01 | 36 | 1009.2 |
| 20260509231858 | 82 | 195 | 4.3 | 5.2 | 0.00 | 0.01 | 0.01 | 36 | 1009.0 |
| 20260509231355 | 81 | 230 | 3.5 | 3.5 | 0.00 | 0.01 | 0.01 | 38 | 1009.2 |
| 20260509230853 | 82 | 159 | 1.7 | 2.6 | 0.00 | 0.01 | 0.01 | 38 | 1009.2 |
| 20260509230350 | 81 | 185 | 5.2 | 6.1 | 0.00 | 0.01 | 0.01 | 37 | 1009.2 |
| 20260509225845 | 82 | 221 | 3.5 | 5.2 | 0.00 | 0.01 | 0.01 | 38 | 1009.0 |
| 20260509225342 | 82 | 259 | 3.5 | 5.2 | 0.00 | 0.01 | 0.01 | 37 | 1009.1 |
| 20260509224838 | 82 | 197 | 3.5 | 3.5 | 0.00 | 0.01 | 0.01 | 36 | 1008.9 |
| 20260509224334 | 82 | 180 | 0.9 | 0.9 | 0.00 | 0.01 | 0.01 | 37 | 1009.0 |
| 20260509223831 | 82 | 168 | 3.5 | 5.2 | 0.00 | 0.01 | 0.01 | 38 | 1009.2 |
| 20260509223327 | 82 | 215 | 5.2 | 6.1 | 0.00 | 0.01 | 0.01 | 36 | 1009.2 |
| 20260509222824 | 82 | 223 | 5.2 | 6.1 | 0.00 | 0.01 | 0.01 | 36 | 1009.3 |
| 20260509222320 | 82 | 199 | 5.2 | 7.8 | 0.00 | 0.01 | 0.01 | 38 | 1009.0 |
| 20260509221815 | 82 | 195 | 2.6 | 2.6 | 0.00 | 0.01 | 0.01 | 37 | 1009.1 |
| 20260509221314 | 82 | 223 | 5.2 | 6.1 | 0.00 | 0.01 | 0.01 | 37 | 1009.1 |
| 20260509220814 | 82 | 223 | 2.6 | 2.6 | 0.00 | 0.01 | 0.01 | 37 | 1009.4 |
| 20260509220310 | 81 | 178 | 2.6 | 3.5 | 0.00 | 0.01 | 0.01 | 38 | 1009.1 |
| 20260509215806 | 81 | 209 | 1.7 | 2.6 | 0.00 | 0.01 | 0.01 | 37 | 1009.3 |
| 20260509215305 | 82 | 182 | 3.5 | 3.5 | 0.00 | 0.01 | 0.01 | 37 | 1009.4 |
| 20260509214759 | 83 | 238 | 2.6 | 2.6 | 0.00 | 0.01 | 0.01 | 36 | 1009.2 |
| 20260509214257 | 83 | 265 | 3.5 | 3.5 | 0.00 | 0.01 | 0.01 | 34 | 1009.3 |
| 20260509213754 | 83 | 208 | 2.6 | 2.6 | 0.00 | 0.01 | 0.01 | 34 | 1009.3 |
| 20260509213249 | 83 | 221 | 3.5 | 5.2 | 0.00 | 0.01 | 0.01 | 34 | 1009.4 |
| 20260509212747 | 83 | 259 | 3.5 | 5.2 | 0.00 | 0.01 | 0.01 | 36 | 1009.3 |
| 20260509212244 | 83 | 176 | 1.7 | 2.6 | 0.00 | 0.01 | 0.01 | 35 | 1009.3 |
| 20260509211739 | 82 | 178 | 2.6 | 2.6 | 0.00 | 0.01 | 0.01 | 35 | 1009.4 |
| 20260509211236 | 84 | 195 | 3.5 | 3.5 | 0.00 | 0.01 | 0.01 | 35 | 1009.5 |
| 20260509210732 | 84 | 179 | 0.9 | 0.9 | 0.00 | 0.01 | 0.01 | 32 | 1009.8 |
| 20260509210231 | 84 | 238 | 3.5 | 3.5 | 0.00 | 0.01 | 0.01 | 33 | 1009.6 |
| 20260509205730 | 83 | 155 | 0.9 | 0.9 | 0.00 | 0.01 | 0.01 | 33 | 1009.5 |
| 20260509205229 | 85 | 336 | 2.6 | 2.6 | 0.00 | 0.01 | 0.01 | 35 | 1009.4 |
| 20260509204726 | 83 | 246 | 1.7 | 3.5 | 0.00 | 0.01 | 0.01 | 38 | 1009.8 |
| 20260509204222 | 84 | 230 | 0.9 | 1.7 | 0.00 | 0.01 | 0.01 | 32 | 1009.8 |
| 20260509203718 | 83 | 188 | 0.9 | 0.9 | 0.00 | 0.01 | 0.01 | 36 | 1009.9 |